Back to catalog

COSMOS 1579

AliveMilitaryLEO
NORAD 15085·PAYLOAD·🇷🇺 Russia

Launched Jun 29, 1984 from Baikonur Cosmodrome

Loading…

Next Passes (next 24 hours)

TLE

FreshSource: Space-Track

Epoch: Sep 14, 2026, 05:49 UTC

1 15085U 84069A   26257.24276171 -.00000077  00000-0  10111-4 0  9991
2 15085  65.0496 213.0106 0049455 343.5015  16.4435 13.86223534138127

Track COSMOS 1579 in real time with AllMySat

Download on the App Store